Terminal Aerodrome Forecast
Issued by NWS State College, PA

Home | Current Version | Previous Version | Text Only | Print | Product List | Glossary On
Versions: 1 2 3 4 5 6 7 8 9 10 11 12 13 14 15 16 17 18 19 20 21 22 23 24 25 26 27 28 29 30 31 32 33 34 35 36 37 38 39 40 41 42 43 44 45 46 47 48 49 50
000
FTUS41 KCTP 302344
TAFMDT
TAF
KMDT 302344Z 0100/0124 15006KT P6SM VCTS BKN035CB
      TEMPO 0100/0102 25012G25KT 1SM +TSRA BR OVC025CB
     FM010200 17006KT P6SM -SHRA BKN035
      TEMPO 0102/0105 2SM TSRA BR OVC025CB
     FM010500 26006KT 4SM BR BKN020
     FM011300 29008G15KT P6SM SCT035=

USA.gov is the U.S. government's official web portal to all federal, state and local government web resources and services.